Showing default

RANGE A, 43773

Orbit data source: Space-Track

RANGE A, 43773 is a payload satellite owned by GaTech (US) in SSO that was launched on Mon, 03 Dec 2018 UTC via an FALCON 9 launch vehicle from the Air Force Western Test Range (AFWTR). Payload-class satellites include a variety of spacecraft equipped with specific instruments for various scientific and technological missions. These include communications satellites like Starlink; space stations such as the ISS; scientific satellites like the Hubble; Earth observation satellites from companies like Planet Labs, Umbra, and HawkEye 360; GPS; miniature CubeSats for education and research; and military/defense satellites.

Loading next visibility...
Identifier
43773, 2018-099R
Orbit
SSO
Country
Flag of USUS
Related business
Manufacturer
GaTech
Mission
Operational Amateur Technology
Bus & Motor
CUBESAT 1.5U, Unknown motor
Mass
2 kg wet, 2 kg dry
Launch date (UTC)
2018-12-03 (7 years ago)
Launch vehicle
FALCON 9
Launch site
Air Force Western Test Range (AFWTR)
Object type
Payload
Rocket body
Debris
Shape & HBR
Box + 2 Pan, 0.1 m
Radar Cross Section
0.025 m², Small (<0.1 m²)

Expand to show TLE details & history
Last TLE update: 11 hours ago

TLE from 11 hours ago
0 RANGE A
1 43773U 18099R   26120.56559425  .00004261  00000-0  24482-3 0  9999
2 43773  97.4010 164.5426 0011505 145.0724 215.1264 15.12968313405290
Epoch: 2026-04-30T13:34Z
TLE epoch observation values (Epoch: 2026-04-30T13:34:27.343Z)
Latitude
-0.00004°
Longitude
102.4183°
Altitude
536.737 km
Speed
7.591 km/s
True Right ascension
10h 58m 10s
True Declination
0° 00' 00"
Sunlit
Object was in full shadow at epoch
Visualization orbit readout
Latitude
Unknown
Longitude
Unknown
Altitude
Unknown
Speed
Unknown
Apparent Right ascension
Unknown
Apparent Declination
Unknown
Sunlit
N/A
Visualization observer readout
Local Sidereal Time
07:40:54
Azimuth
Unknown
Elevation
Unknown
Doppler factor
Unknown
Orbital elements
Apogee altitude
532.07 km
Perigee altitude
516.187 km
Semi-major axis
6,902.265 km
Eccentricity
0.00115
Inclination
97.401°
RAAN
164.5426°
Arg. of periapsis
145.0724°
True anomaly
215.05063°
Mean anomaly
215.1264°
Eccentric anomaly
215.08851°
Mean motion
3.78491 °/min
Orbital period
95.11 mins
BSTAR
0.00024482
Loading maneuver chart data...
Computing Atmospheric mass density...
Loading historical data...
Loading historical data...
Loading historical data...
Loading historical data...
Loading historical data...
Loading historical data...
Loading historical data...

Documentation

Showing up to 5 results
|